Regional Weather Roundup
Issued by NWS

Home | Current Version | Previous Version | Graphics & Text | Print | Product List | Glossary On
Versions: 1 2 3 4 5 6 7 8 9 10 11 12 13 14 15 16 17 18 19 20 21 22 23 24 25 26 27 28 29 30 31 32 33 34 35 36 37 38 39 40 41 42 43 44 45 46 47 48 49 50
000
ASUS43 KMKX 310411
RWRWI

WISCONSIN REGIONAL WEATHER ROUNDUP
NATIONAL WEATHER SERVICE MILWAUKEE/SULLIVAN WI
1100 PM CDT MON MAY 30 2016

NOTE: "FAIR" INDICATES FEW OR NO CLOUDS BELOW 12,000 FEET WITH NO
SIGNIFICANT WEATHER AND/OR OBSTRUCTIONS TO VISIBILITY.

WIZ001-002-006>008-014>016-023>028-310500-
NORTHWEST WISCONSIN

CITY           SKY/WX    TMP DP  RH WIND       PRES   REMARKS
SUPERIOR ARPT  CLOUDY    52  46  80 CALM      29.96R
ASHLAND        CLOUDY    62  49  62 N9G18     30.02R
HAYWARD        MOCLDY    62  56  80 NE5       29.97R
SIREN          PTCLDY    64  55  72 SE3       29.94S
CUMBERLAND     CLOUDY    64  52  63 CALM      29.96S
RICE LAKE      CLOUDY    68  56  64 CALM      29.97S
CHETEK         CLOUDY    65  58  78 CALM      29.95S
LADYSMITH      PTCLDY    62  56  81 CALM      29.98F
EAU CLAIRE     CLOUDY    67  56  67 CALM      29.94S
MENOMONIE      PTCLDY    68  56  65 E5        29.94S
NEW RICHMOND   CLOUDY    69  52  55 SE5       29.94R
OSCEOLA        CLOUDY    68  56  65 SE6       29.95S
$$

WIZ003>005-009-010-017-018-310500-
NORTH CENTRAL WISCONSIN

CITY           SKY/WX    TMP DP  RH WIND       PRES   REMARKS
MANITOWISH WTR NOT AVBL
ARBOR VITAE    CLOUDY    64  48  55 E5        30.01F
WOODRUFF       CLOUDY    64  48  55 E5        30.01F
RHINELANDER    CLOUDY    64  52  64 NE6       30.02S
EAGLE RIVER      N/A     55  53  93 CALM      30.03S
LAND O LAKES   CLOUDY    56  53  89 CALM      30.05R
PHILLIPS       CLEAR     60  56  85 CALM      29.99S
TOMAHAWK       CLOUDY    60  55  84 CALM      30.01F
MEDFORD        PTCLDY    57  56  97 CALM      29.98F
MERRILL        MOCLDY    60  57  91 CALM      30.01S
$$

WIZ029-030-035-036-043>047-310500-
CENTRAL WISCONSIN

CITY           SKY/WX    TMP DP  RH WIND       PRES   REMARKS
WAUSAU         CLOUDY    65  54  67 S6        29.98F
MOSINEE        CLOUDY    63  52  67 E3        30.00F
MARSHFIELD     CLOUDY    66  53  63 CALM      29.97F
STEVENS POINT  CLOUDY    57  53  87 CALM      29.99F
WAUPACA        CLOUDY    62  59  90 CALM      29.99F
WAUTOMA        PTCLDY   N/A N/A N/A CALM      29.99S
WISC RAPIDS    CLOUDY    62  52  69 SE6       29.99F
CAMP DOUGLAS   NOT AVBL
$$

WIZ011>013-019>022-031-037>040-048>050-310500-
NORTHEAST WISCONSIN

CITY           SKY/WX    TMP DP  RH WIND       PRES   REMARKS
ANTIGO         CLOUDY    60  55  83 CALM      30.02F
SHAWANO        CLEAR     62  56  81 CALM      29.99F
OCONTO         CLEAR    N/A N/A N/A CALM      29.98S
STURGEON BAY   NOT AVBL
GREEN BAY      CLOUDY    64  58  80 CALM      29.98F
MANITOWOC      CLOUDY    62  54  74 SW3       30.00F
APPLETON       PTCLDY    68  48  49 CALM      29.98F
CLINTONVILLE   CLOUDY    59  55  88 CALM      29.98F
OSHKOSH        PTCLDY    64  56  75 S7        29.98F
$$

WIZ032>034-041-042-053>061-310500-
SOUTHWEST WISCONSIN

CITY           SKY/WX    TMP DP  RH WIND       PRES   REMARKS
LA CROSSE      CLOUDY    71  56  58 SE6       29.93S
SPARTA         CLOUDY    65  56  73 SE3       29.96F
VIROQUA        CLOUDY    69  51  53 SE9       29.97R
BOSCOBEL       CLOUDY    65  60  84 CALM      29.96R
PRAIRIE DU CHI HVY RAIN  68  58  68 SW23G32   29.99R
PLATTEVILLE    CLOUDY    70  54  56 E8        29.97R
$$

WIZ056-057-062-063-064-067-068-310500-
SOUTH CENTRAL WISCONSIN

CITY           SKY/WX    TMP DP  RH WIND       PRES   REMARKS
REEDSBURG      CLOUDY    63  56  79 CALM      29.97S
BARABOO/DELLS  CLOUDY    64  53  66 CALM      29.97F
LONE ROCK      CLOUDY    67  57  70 CALM      29.98R
MINERAL POINT  CLOUDY    72  46  40 E6        29.98R
MADISON        CLOUDY    64  53  67 CALM      29.97F
MIDDLETON      CLOUDY    64  55  71 CALM      29.99S
WATERTOWN      PTCLDY    64  58  83 E5        29.99F
MONROE         CLOUDY    70  50  49 E6        29.98S
JANESVILLE     CLOUDY    68  55  64 E5        29.98S
$$

WIZ051-052-058>065-066-070>072-310500-
SOUTHEAST WISCONSIN

CITY           SKY/WX    TMP DP  RH WIND       PRES   REMARKS
MILWAUKEE      PTCLDY    64  56  75 CALM      30.00S
WAUKESHA       CLOUDY    63  52  67 CALM      30.01F
MILWAUKEE/TIMM CLOUDY    64  52  63 CALM      30.01S
RACINE         PTCLDY    61  56  83 CALM      30.02S
BURLINGTON     PTCLDY    63  56  80 CALM      30.00S
KENOSHA        PTCLDY    59  56  89 CALM      30.01S
FOND DU LAC    CLEAR     65  59  81 SE5       29.99F
SHEBOYGAN      PTCLDY    59  54  83 CALM      30.00S
WEST BEND      PTCLDY    61  57  88 CALM      30.00F
JUNEAU         CLOUDY    65  58  80 E7        30.00F
$$

LSZ147-162-310500-
LAKE SUPERIOR

STATION/POSITION TIME  TEMP    WIND        PRES    WAVE
                       AIR SEA DIR/SP/G            HT/PER
                 (UTC) (F)     (DEG/KT/KT) (MB)    (FT/S)
W MID LAKE BUOY  0350   44 38   80/ 16/ 19 1018.2R   2/ 3
DEVILS ISLAND    0300   56      80/ 26/ 29 1016.1R
SAXON HARBOR     0320   62      10/  8/ 16 1015.2R
$$

LMZ867-665-643>646-310500-
LAKE MICHIGAN

STATION/POSITION TIME  TEMP    WIND        PRES    WAVE
                       AIR SEA DIR/SP/G            HT/PER
                 (UTC) (F)     (DEG/KT/KT) (MB)    (FT/S)
CHAMBERS ISLAND  0300   63     180/  3/  4 1015.2R
N MID LAKE BUOY  0350   58 50   CALM  /  2 1015.9R   1
NORTHPORT PIER   0300   59      10/  8/ 13 1015.6R
KEWAUNEE LAKESHO 0300   67                   N/A
SHEBOYGAN LAKESH 0400   63     210/  4/  4 1016.1F
PORT WASHINGTON  0300   62      CALM  /  4 1016.6
S MID LAKE BUOY  0350   60 58  110/  4/  4 1015.5R   0
KENOSHA   LAKESH 0400   62      CALM  /  1 1015.9S
$$

TC  - TEMPERATURE IN CELSIUS
VSB - VISIBILITY IN STATUTE MILES
WCI - WIND CHILL INDEX
HX  - HEAT INDEX





USA.gov is the U.S. government's official web portal to all federal, state and local government web resources and services.